Time,TemperatureF,DewpointF,PressureIn,WindDirection,WindDirectionDegrees,WindSpeedMPH,WindSpeedGustMPH,Humidity,HourlyPrecipIn,Conditions,Clouds,dailyrainin,SolarRadiationWatts/m^2,SoftwareType,DateUTC
2013-03-19 00:00:00,30.0,30.0,-100.00,WSW,247,20.0,-999.0,99,-99.99,,,-99.99,0.000000,,2013-03-19 04:00:00,
2013-03-19 00:43:00,30.0,30.0,-100.00,WSW,247,20.0,-999.0,99,-99.99,,,-99.99,0.000000,,2013-03-19 04:43:00,
2013-03-19 00:53:00,30.0,30.0,-100.00,WSW,247,20.0,-999.0,99,-99.99,,,-99.99,0.000000,,2013-03-19 04:53:00,
2013-03-19 01:00:00,28.0,26.0,-100.00,WSW,247,19.0,-999.0,92,-99.99,,,-99.99,0.000000,,2013-03-19 05:00:00,
2013-03-19 01:43:00,28.0,26.0,-100.00,WSW,247,19.0,-999.0,92,-99.99,,,-99.99,0.000000,,2013-03-19 05:43:00,
2013-03-19 01:52:00,28.0,26.0,-100.00,WSW,247,19.0,-999.0,92,-99.99,,,-99.99,0.000000,,2013-03-19 05:52:00,
2013-03-19 02:00:00,26.0,23.0,-100.00,WSW,247,19.0,-999.0,88,-99.99,,,-99.99,0.000000,,2013-03-19 06:00:00,
2013-03-19 02:42:00,26.0,23.0,-100.00,WSW,247,19.0,-999.0,88,-99.99,,,-99.99,0.000000,,2013-03-19 06:42:00,
2013-03-19 02:53:00,26.0,23.0,-100.00,WSW,247,19.0,-999.0,88,-99.99,,,-99.99,0.000000,,2013-03-19 06:53:00,
2013-03-19 03:00:00,25.0,22.0,-100.00,WSW,247,17.0,-999.0,87,-99.99,,,-99.99,0.000000,,2013-03-19 07:00:00,
2013-03-19 03:42:00,25.0,22.0,-100.00,WSW,247,17.0,-999.0,87,-99.99,,,-99.99,0.000000,,2013-03-19 07:42:00,
2013-03-19 03:53:00,25.0,22.0,-100.00,WSW,247,17.0,-999.0,87,-99.99,,,-99.99,0.000000,,2013-03-19 07:53:00,
2013-03-19 04:00:00,23.0,20.0,-100.00,WSW,247,17.0,-999.0,86,-99.99,,,-99.99,0.000000,,2013-03-19 08:00:00,
2013-03-19 04:43:00,23.0,20.0,-100.00,WSW,247,17.0,-999.0,86,-99.99,,,-99.99,0.000000,,2013-03-19 08:43:00,
2013-03-19 04:53:00,23.0,20.0,-100.00,WSW,247,17.0,-999.0,86,-99.99,,,-99.99,0.000000,,2013-03-19 08:53:00,
2013-03-19 05:00:00,22.0,20.0,-100.00,WSW,247,17.0,-999.0,88,-99.99,,,-99.99,0.000000,,2013-03-19 09:00:00,
2013-03-19 05:43:00,22.0,20.0,-100.00,WSW,247,17.0,-999.0,88,-99.99,,,-99.99,0.000000,,2013-03-19 09:43:00,
2013-03-19 05:53:00,22.0,20.0,-100.00,WSW,247,17.0,-999.0,88,-99.99,,,-99.99,0.000000,,2013-03-19 09:53:00,
2013-03-19 06:00:00,22.0,19.0,-100.00,WSW,247,15.0,-999.0,90,-99.99,,,-99.99,0.000000,,2013-03-19 10:00:00,
2013-03-19 06:42:00,22.0,19.0,-100.00,WSW,247,15.0,-999.0,90,-99.99,,,-99.99,0.000000,,2013-03-19 10:42:00,
2013-03-19 06:53:00,22.0,19.0,-100.00,WSW,247,15.0,-999.0,90,-99.99,,,-99.99,0.000000,,2013-03-19 10:53:00,
2013-03-19 07:00:00,21.0,19.0,-100.00,WSW,247,16.0,-999.0,91,-99.99,,,-99.99,0.000000,,2013-03-19 11:00:00,
2013-03-19 07:43:00,21.0,19.0,-100.00,WSW,247,16.0,-999.0,91,-99.99,,,-99.99,0.000000,,2013-03-19 11:43:00,
2013-03-19 07:53:00,21.0,19.0,-100.00,WSW,247,16.0,-999.0,91,-99.99,,,-99.99,0.000000,,2013-03-19 11:53:00,
2013-03-19 09:00:00,20.0,19.0,-100.00,WSW,247,14.0,-999.0,96,-99.99,,,-99.99,19.719999,,2013-03-19 13:00:00,
2013-03-19 09:42:00,20.0,19.0,-100.00,WSW,247,14.0,-999.0,96,-99.99,,,-99.99,19.719999,,2013-03-19 13:42:00,
2013-03-19 09:53:00,20.0,19.0,-100.00,WSW,247,14.0,-999.0,96,-99.99,,,-99.99,19.719999,,2013-03-19 13:53:00,
2013-03-19 10:00:00,20.0,20.0,-100.00,WSW,247,15.0,-999.0,100,-99.99,,,-99.99,96.279999,,2013-03-19 14:00:00,
2013-03-19 10:42:00,20.0,20.0,-100.00,WSW,247,15.0,-999.0,100,-99.99,,,-99.99,96.279999,,2013-03-19 14:42:00,
2013-03-19 10:53:00,20.0,20.0,-100.00,WSW,247,15.0,-999.0,100,-99.99,,,-99.99,96.279999,,2013-03-19 14:53:00,
2013-03-19 12:00:00,20.0,19.0,-100.00,WSW,247,16.0,-999.0,97,-99.99,,,-99.99,250.559998,,2013-03-19 16:00:00,
2013-03-19 12:44:00,20.0,19.0,-100.00,WSW,247,16.0,-999.0,97,-99.99,,,-99.99,250.559998,,2013-03-19 16:44:00,
2013-03-19 12:55:00,20.0,19.0,-100.00,WSW,247,16.0,-999.0,97,-99.99,,,-99.99,250.559998,,2013-03-19 16:55:00,
2013-03-19 13:00:00,20.0,19.0,-100.00,WSW,247,16.0,-999.0,97,-99.99,,,-99.99,274.920013,,2013-03-19 17:00:00,
2013-03-19 13:44:00,20.0,19.0,-100.00,WSW,247,16.0,-999.0,97,-99.99,,,-99.99,274.920013,,2013-03-19 17:44:00,
2013-03-19 13:53:00,20.0,19.0,-100.00,WSW,247,16.0,-999.0,97,-99.99,,,-99.99,274.920013,,2013-03-19 17:53:00,
2013-03-19 14:00:00,20.0,19.0,-100.00,West,270,15.0,-999.0,97,-99.99,,,-99.99,258.679993,,2013-03-19 18:00:00,
2013-03-19 14:44:00,20.0,19.0,-100.00,West,270,15.0,-999.0,97,-99.99,,,-99.99,258.679993,,2013-03-19 18:44:00,
2013-03-19 14:54:00,20.0,19.0,-100.00,West,270,15.0,-999.0,97,-99.99,,,-99.99,258.679993,,2013-03-19 18:54:00,
2013-03-19 15:00:00,21.0,20.0,-100.00,West,270,15.0,-999.0,95,-99.99,,,-99.99,215.759995,,2013-03-19 19:00:00,
2013-03-19 15:43:00,21.0,20.0,-100.00,West,270,15.0,-999.0,95,-99.99,,,-99.99,215.759995,,2013-03-19 19:43:00,
2013-03-19 15:53:00,21.0,20.0,-100.00,West,270,15.0,-999.0,95,-99.99,,,-99.99,215.759995,,2013-03-19 19:53:00,
2013-03-19 16:00:00,22.0,20.0,-100.00,West,270,15.0,-999.0,89,-99.99,,,-99.99,256.359985,,2013-03-19 20:00:00,
2013-03-19 16:43:00,22.0,20.0,-100.00,West,270,15.0,-999.0,89,-99.99,,,-99.99,256.359985,,2013-03-19 20:43:00,
2013-03-19 16:53:00,22.0,20.0,-100.00,West,270,15.0,-999.0,89,-99.99,,,-99.99,256.359985,,2013-03-19 20:53:00,
2013-03-19 17:00:00,24.0,20.0,-100.00,West,270,16.0,-999.0,82,-99.99,,,-99.99,197.199997,,2013-03-19 21:00:00,
2013-03-19 17:43:00,24.0,20.0,-100.00,West,270,16.0,-999.0,82,-99.99,,,-99.99,197.199997,,2013-03-19 21:43:00,
2013-03-19 17:53:00,24.0,20.0,-100.00,West,270,16.0,-999.0,82,-99.99,,,-99.99,197.199997,,2013-03-19 21:53:00,
2013-03-19 18:00:00,27.0,21.0,-100.00,West,270,18.0,-999.0,78,-99.99,,,-99.99,221.559998,,2013-03-19 22:00:00,
2013-03-19 18:54:00,27.0,21.0,-100.00,West,270,18.0,-999.0,78,-99.99,,,-99.99,221.559998,,2013-03-19 22:54:00,
2013-03-19 19:00:00,28.0,20.0,-100.00,West,270,19.0,-999.0,73,-99.99,,,-99.99,199.520004,,2013-03-19 23:00:00,
2013-03-19 19:43:00,28.0,20.0,-100.00,West,270,19.0,-999.0,73,-99.99,,,-99.99,199.520004,,2013-03-19 23:43:00,
2013-03-19 19:53:00,28.0,20.0,-100.00,West,270,19.0,-999.0,73,-99.99,,,-99.99,199.520004,,2013-03-19 23:53:00,
2013-03-19 20:00:00,27.0,17.0,-100.00,West,270,16.0,-999.0,64,-99.99,,,-99.99,49.880001,,2013-03-20 00:00:00,
2013-03-19 20:43:00,27.0,17.0,-100.00,West,270,16.0,-999.0,64,-99.99,,,-99.99,49.880001,,2013-03-20 00:43:00,
2013-03-19 20:52:00,27.0,17.0,-100.00,West,270,16.0,-999.0,64,-99.99,,,-99.99,49.880001,,2013-03-20 00:52:00,
2013-03-19 21:00:00,27.0,15.0,-100.00,West,270,13.0,-999.0,58,-99.99,,,-99.99,0.000000,,2013-03-20 01:00:00,
2013-03-19 21:43:00,27.0,15.0,-100.00,West,270,13.0,-999.0,58,-99.99,,,-99.99,0.000000,,2013-03-20 01:43:00,
2013-03-19 21:53:00,27.0,15.0,-100.00,West,270,13.0,-999.0,58,-99.99,,,-99.99,0.000000,,2013-03-20 01:53:00,
2013-03-19 22:00:00,27.0,13.0,-100.00,West,270,11.0,-999.0,55,-99.99,,,-99.99,0.000000,,2013-03-20 02:00:00,
2013-03-19 22:43:00,27.0,13.0,-100.00,West,270,11.0,-999.0,55,-99.99,,,-99.99,0.000000,,2013-03-20 02:43:00,
2013-03-19 22:53:00,27.0,13.0,-100.00,West,270,11.0,-999.0,55,-99.99,,,-99.99,0.000000,,2013-03-20 02:53:00,
2013-03-19 23:00:00,28.0,17.0,-100.00,West,270,13.0,-999.0,62,-99.99,,,-99.99,0.000000,,2013-03-20 03:00:00,
2013-03-19 23:43:00,28.0,17.0,-100.00,West,270,13.0,-999.0,62,-99.99,,,-99.99,0.000000,,2013-03-20 03:43:00,
2013-03-19 23:53:00,28.0,17.0,-100.00,West,270,13.0,-999.0,62,-99.99,,,-99.99,0.000000,,2013-03-20 03:53:00,